FW4835 Weather Reports


Display with metric or nautical units.
time (UTC)temp
F
wind
direction
speed
MPH
gust
MPH
rain 1hr
in
rain 24hr
in
rain mn
in
humidity
%
barometer
mb
20260831091608 58 319 0.0 2.0 0.00 0.00 0.00 86 1009.9
20260831090005 58 332 0.0 2.0 0.00 0.00 0.00 85 1009.9
20260831084508 59 221 0.0 2.0 0.00 0.00 0.00 85 1010.1
20260831083001 59 209 1.0 2.0 0.00 0.00 0.00 85 1010.3
20260831081604 59 205 0.0 2.0 0.00 0.00 0.00 85 1010.4
20260831080057 59 332 0.0 2.0 0.00 0.00 0.00 85 1010.6
20260831074555 60 312 0.0 3.0 0.00 0.00 0.00 84 1010.6
20260831073056 60 65 0.0 3.0 0.00 0.00 0.00 84 1010.6
20260831071555 60 339 1.0 3.0 0.00 0.00 0.00 84 1010.6
20260831070051 60 246 0.0 2.0 0.00 0.00 0.00 83 1010.8
20260831064548 61 74 0.0 2.0 0.00 0.00 0.00 83 1011.0
20260831063046 61 17 1.0 2.0 0.00 0.00 0.00 82 1011.0
20260831061546 61 311 0.0 2.0 0.00 0.00 0.00 82 1011.0
20260831060047 61 296 1.0 4.0 0.00 0.00 0.00 82 1011.1
20260831054542 61 271 1.0 3.0 0.00 0.00 0.00 82 1011.4
20260831053040 62 235 0.0 3.0 0.00 0.00 0.00 81 1011.7
20260831051552 61 11 0.0 3.0 0.00 0.00 0.00 81 1011.7
20260831050038 62 105 0.0 2.0 0.00 0.00 0.00 80 1011.9
20260831044536 62 98 0.0 3.0 0.00 0.00 0.00 80 1011.9
20260831043036 62 286 1.0 3.0 0.00 0.00 0.00 80 1012.1
20260831041537 61 88 0.0 2.0 0.00 0.00 0.00 80 1012.1
20260831040037 62 355 0.0 1.0 0.00 0.00 0.00 78 1012.2
20260831034540 62 360 0.0 1.0 0.00 0.00 0.00 76 1012.3
20260831033034 63 360 0.0 2.0 0.00 0.00 0.00 75 1012.1
20260831031533 64 355 0.0 1.0 0.00 0.00 0.00 73 1012.2
20260831030031 65 355 0.0 1.0 0.00 0.00 0.00 71 1012.2
20260831024534 66 315 0.0 2.0 0.00 0.00 0.00 69 1012.3
20260831023029 67 128 1.0 3.0 0.00 0.00 0.00 67 1012.4
20260831021530 68 290 1.0 6.0 0.00 0.00 0.00 65 1012.7
20260831020028 68 326 1.0 8.0 0.00 0.00 0.00 64 1012.9
20260831014529 69 165 1.0 4.0 0.00 0.00 0.00 62 1012.9
20260831013027 69 286 0.0 3.0 0.00 0.00 0.00 60 1013.1
20260831011536 69 199 1.0 6.0 0.00 0.00 0.00 60 1013.3
20260831010022 70 213 2.0 4.0 0.00 0.00 0.00 59 1013.3
20260831004521 70 252 2.0 7.0 0.00 0.00 0.00 59 1013.6
20260831003028 70 98 1.0 5.0 0.00 0.00 0.00 58 1013.5
20260831001516 71 255 2.0 6.0 0.00 0.00 0.00 58 1013.6
20260831000013 71 261 2.0 5.0 0.00 0.00 0.00 56 1013.9
20260830234509 71 230 1.0 6.0 0.00 0.00 0.00 55 1013.7
20260830233005 72 254 1.0 6.0 0.00 0.00 0.00 55 1014.1
20260830231502 71 250 1.0 5.0 0.00 0.00 0.00 56 1014.2
20260830230057 72 209 2.0 4.0 0.00 0.00 0.00 55 1014.5
20260830224556 71 276 1.0 5.0 0.00 0.00 0.00 57 1014.6
20260830223108 71 163 1.0 5.0 0.00 0.00 0.00 58 1014.7
20260830221549 71 283 1.0 3.0 0.00 0.00 0.00 57 1014.9
20260830220042 71 166 1.0 7.0 0.00 0.00 0.00 58 1015.1
20260830214539 71 234 2.0 4.0 0.00 0.00 0.00 57 1015.2
20260830213036 71 341 1.0 9.0 0.00 0.00 0.00 57 1015.2
20260830211532 70 309 1.0 8.0 0.00 0.00 0.00 57 1015.4
20260830210027 70 295 1.0 5.0 0.00 0.00 0.00 57 1015.6
20260830204522 70 33 2.0 8.0 0.00 0.00 0.00 57 1015.7
20260830203023 70 355 1.0 9.0 0.00 0.00 0.00 56 1015.8
20260830201515 69 288 2.0 6.0 0.00 0.00 0.00 57 1016.0
20260830200031 68 173 1.0 8.0 0.00 0.00 0.00 59 1016.0
20260830194509 68 190 1.0 5.0 0.00 0.00 0.00 58 1016.0
20260830193006 68 156 1.0 5.0 0.00 0.00 0.00 62 1016.2
20260830191505 67 315 1.0 6.0 0.00 0.00 0.00 59 1016.5
20260830190007 67 5 1.0 3.0 0.00 0.00 0.00 62 1016.4
20260830184501 66 219 1.0 5.0 0.00 0.00 0.00 63 1016.5
20260830183111 66 116 1.0 8.0 0.00 0.00 0.00 64 1016.6
20260830181555 64 109 1.0 3.0 0.00 0.00 0.00 70 1016.8
20260830180053 63 29 1.0 3.0 0.00 0.00 0.00 73 1016.8
20260830174604 62 39 0.0 3.0 0.00 0.01 0.00 73 1016.8
20260830173048 62 30 0.0 3.0 0.00 0.01 0.00 76 1017.1
20260830171547 61 243 0.0 2.0 0.00 0.01 0.00 78 1017.0
20260830170041 60 315 1.0 3.0 0.00 0.01 0.00 82 1017.0
20260830164537 58 34 0.0 2.0 0.00 0.01 0.00 84 1017.0
20260830163036 57 28 0.0 2.0 0.00 0.01 0.00 90 1017.1
20260830161529 55 28 0.0 2.0 0.00 0.01 0.00 95 1017.0
20260830160034 53 27 0.0 2.0 0.00 0.01 0.00 95 1017.1
20260830154522 52 27 0.0 2.0 0.00 0.01 0.00 96 1017.3
20260830153019 51 9 0.0 2.0 0.00 0.01 0.00 96 1017.2
20260830151519 51 9 0.0 2.0 0.00 0.01 0.00 96 1017.3
20260830150017 50 96 0.0 2.0 0.00 0.01 0.00 95 1017.2
20260830144513 50 125 0.0 1.0 0.00 0.01 0.00 95 1017.2
20260830143010 49 125 0.0 1.0 0.00 0.01 0.00 95 1017.1
20260830141508 49 125 0.0 1.0 0.00 0.01 0.00 95 1017.0
20260830140007 49 125 0.0 1.0 0.00 0.01 0.00 95 1016.9
20260830134504 49 125 0.0 1.0 0.00 0.01 0.00 95 1016.8
20260830133004 49 125 0.0 0.0 0.00 0.01 0.00 95 1016.8
20260830131501 48 125 0.0 0.0 0.00 0.01 0.00 95 1016.8
20260830124558 48 125 0.0 1.0 0.00 0.01 0.00 94 1016.7
20260830123057 47 125 0.0 0.0 0.00 0.01 0.00 94 1016.7
20260830121556 47 125 0.0 0.0 0.00 0.01 0.00 94 1016.5
20260830120058 48 125 0.0 0.0 0.00 0.01 0.00 94 1016.5
20260830114556 48 125 0.0 0.0 0.00 0.02 0.00 94 1016.6
20260830113059 48 125 0.0 0.0 0.00 0.02 0.00 94 1016.6
20260830111552 48 125 0.0 0.0 0.00 0.02 0.00 94 1016.6
20260830110049 48 125 0.0 0.0 0.00 0.02 0.00 94 1016.6
20260830104603 48 125 0.0 0.0 0.00 0.02 0.00 93 1016.6
20260830103046 49 125 0.0 1.0 0.00 0.02 0.00 93 1016.5
20260830101545 49 125 0.0 0.0 0.00 0.02 0.00 93 1016.3
20260830100042 49 125 0.0 0.0 0.00 0.02 0.00 93 1016.5
20260830094541 50 125 0.0 0.0 0.00 0.02 0.00 92 1016.3
20260830093042 50 125 0.0 1.0 0.00 0.02 0.00 92 1016.3